Fermer
METAR de LFBA [Agen]
LFBA 290130Z AUTO 30005KT 9999 OVC041 18/15 Q1018
Agen : LFBA 290130Z AUTO 30005KT 9999 OVC041 18/15 Q1018 | Bergerac : LFBE 290130Z AUTO 28004KT 9999 FEW014 OVC046 16/14 Q1019 NOSIG | Bordeaux Merignac : LFBD 290130Z AUTO 20003KT 9999 2300 NSC 15/13 Q1019 TEMPO BKN012
METAR LFBA
Bienvenue sur le site de l'Aéroclub de Gascogne
 Faire un vol d'initiation, un baptême de l'air, apprendre à piloter, se perfectionner.

Vous êtes sur le marmandais et vous souhaitez apprendre à piloter, faire un vol d'initiation, un baptême de l'air ? Vous trouverez sur notre site toutes les informations nécessaires.

Si malgré cela vous avez besoin de plus de renseignements, contactez-nous.

Suivez-nous sur facebook !

L'Aéroclub de Gascogne est une association loi 1901 reconnue d'utilité publique.
Son fonctionnement est assuré par des bénévoles.

Nous sommes un organisme de formation approuvé pour vous former au pilotage.

 
 Vous souhaitez nous rendre visite en avion ? Cliquez ici.